Location: Sternwarte_Laufen
(47.9344°N, 12.9346°E)
Time: 00:43:18
(UTC+02:00)

ISS - Pass Details

Date: 28 May 2017
Orbit: 402 x 408 km, 51.6° (Epoch: 27 May)

Event Time Altitude Azimuth Distance (km) Brightness Sun altitude
Rises 01:41:36 0° 292° (WNW) 2,333 0.2 -20.1°
Reaches altitude 10° 01:43:42 10° 294° (WNW) 1,470 -0.8 -20.1°
Maximum altitude 01:46:59 78° 20° (NNE) 419 -3.8 -20.0°
Enters shadow 01:47:25 63° 88° (E) 458 -3.6 -20.0°
